Location: Navalespino
(40.5894°N, 4.2660°W)
Time: 14:10:08
(UTC+00:00)

Celestis-02/Orion 38 - Pass Details

Date: 18 April 2024
Orbit: 773 x 864 km, 108.0° (Epoch: 24 May)

Event Time Altitude Azimuth Distance (km) Brightness Sun altitude
Exits shadow 21:30:04 68° 195° (SSW) 834 4.5 -25.5°
Maximum altitude 21:30:36 75° 244° (WSW) 802 4.5 -25.6°
Drops below altitude 10° 21:35:40 10° 331° (NNW) 2,332 7.9 -26.3°
Sets 21:37:59 0° 333° (NNW) 3,269 8.9 -26.6°
